COSMOS 2398 [-]

Last updated on July 6, 2021, 3:40 p.m. UTC

1 27818U 03023A   21186.62330340  .00000023  00000-0  93036-5 0  9994
2 27818  82.9485  27.0879 0030228 296.6499  63.1564 13.72191691905826
UTC
Height (km)
Latitude
Longitude
Inclination
Orbital Period
UTC large
Height (km)
Speed (km/s)
/
Latitude / Longitude
Inclination (degrees)
Orbital Period (minutes)
Azimuth
Elevation
Range (km)
Doppler Factor
iOS Compass Heading
iOS Angle